DW8913 Weather Reports


Display with metric or nautical units.
time (UTC)temp
F
wind
direction
speed
MPH
gust
MPH
rain 1hr
in
rain 24hr
in
rain mn
in
humidity
%
barometer
mb
20260508140101 64 30 1.0 5.0 0.00 0.01 0.00 38 1014.5
20260508134525 63 91 0.0 4.0 0.00 0.01 0.00 40 1014.5
20260508133114 62 13 0.0 7.0 0.00 0.01 0.00 44 1014.6
20260508131539 62 229 0.0 2.0 0.00 0.01 0.00 46 1014.6
20260508130012 59 62 2.0 6.0 0.00 0.01 0.00 49 1014.5
20260508124550 58 41 0.0 6.0 0.00 0.01 0.00 58 1014.4
20260508123019 55 46 3.0 7.0 0.00 0.01 0.00 59 1014.3
20260508121603 53 107 1.0 5.0 0.00 0.01 0.00 65 1014.2
20260508120030 52 35 2.0 5.0 0.00 0.01 0.00 67 1014.0
20260508114615 51 23 2.0 8.0 0.00 0.01 0.00 68 1014.1
20260508113052 51 198 2.0 8.0 0.00 0.01 0.00 70 1013.7
20260508111507 50 6 1.0 6.0 0.00 0.01 0.00 72 1013.5
20260508110044 49 73 0.0 3.0 0.00 0.01 0.00 74 1013.5
20260508104512 49 33 0.0 4.0 0.00 0.01 0.00 74 1013.3
20260508103056 50 300 0.0 7.0 0.00 0.01 0.00 72 1012.9
20260508101542 50 15 2.0 8.0 0.00 0.01 0.00 73 1012.9
20260508100006 50 32 1.0 9.0 0.00 0.01 0.00 73 1012.7
20260508094543 50 349 2.0 7.0 0.00 0.01 0.00 75 1012.3
20260508093018 50 24 1.0 5.0 0.00 0.01 0.00 76 1012.0
20260508091627 51 282 1.0 4.0 0.00 0.01 0.00 77 1011.7
20260508090030 51 105 1.0 4.0 0.00 0.01 0.00 78 1011.4
20260508084606 51 309 1.0 4.0 0.00 0.01 0.00 78 1011.1
20260508083041 52 38 1.0 4.0 0.00 0.01 0.00 79 1010.9
20260508081509 52 14 1.0 5.0 0.00 0.01 0.00 79 1010.5
20260508080051 53 112 0.0 4.0 0.00 0.01 0.00 80 1010.3
20260508074511 53 155 0.0 3.0 0.00 0.02 0.00 82 1010.2
20260508073008 52 188 0.0 1.0 0.00 0.02 0.00 83 1010.0
20260508071547 52 38 0.0 1.0 0.00 0.02 0.00 83 1009.8
20260508070016 53 224 0.0 0.0 0.00 0.02 0.00 82 1009.7
20260508064557 52 58 0.0 4.0 0.00 0.02 0.00 84 1009.7
20260508063048 52 154 0.0 2.0 0.00 0.02 0.00 84 1009.7
20260508061503 51 231 0.0 1.0 0.00 0.02 0.00 84 1009.6
20260508060042 51 86 0.0 3.0 0.00 0.02 0.00 85 1009.6
20260508054514 51 102 0.0 2.0 0.00 0.02 0.00 86 1009.8
20260508053101 50 101 0.0 2.0 0.00 0.02 0.00 86 1009.8
20260508051530 50 123 0.0 1.0 0.00 0.02 0.00 86 1009.8
20260508050003 50 122 0.0 0.0 0.00 0.02 0.00 86 1009.9
20260508044548 50 123 0.0 0.0 0.00 0.02 0.00 87 1009.9
20260508043017 50 124 0.0 0.0 0.00 0.02 0.00 87 1009.8
20260508041558 50 124 0.0 1.0 0.00 0.02 0.00 87 1009.8
20260508040025 51 122 0.0 1.0 0.00 0.02 0.00 87 1009.7
20260508034612 51 115 0.0 3.0 0.00 0.02 0.02 87 1009.6
20260508033048 51 129 0.0 1.0 0.00 0.02 0.02 86 1009.6
20260508031508 51 40 0.0 1.0 0.00 0.02 0.02 86 1009.8
20260508030053 51 96 0.0 0.0 0.00 0.02 0.02 85 1009.7
20260508024524 51 116 0.0 2.0 0.00 0.02 0.02 85 1009.8
20260508023103 51 117 0.0 2.0 0.00 0.02 0.02 84 1009.7
20260508021538 52 155 0.0 2.0 0.00 0.02 0.02 85 1009.9
20260508020001 52 141 0.0 1.0 0.00 0.02 0.02 86 1009.7
20260508014545 52 190 0.0 1.0 0.00 0.02 0.02 85 1009.6
20260508013013 52 99 0.0 1.0 0.00 0.02 0.02 82 1009.6
20260508011556 53 154 0.0 2.0 0.00 0.02 0.02 81 1009.3
20260508010046 53 109 0.0 3.0 0.00 0.02 0.02 80 1009.0
20260508004612 53 163 0.0 1.0 0.00 0.02 0.02 80 1009.0
20260508003044 53 92 1.0 5.0 0.00 0.02 0.02 81 1008.9
20260508001515 54 154 0.0 3.0 0.00 0.02 0.02 80 1008.6
20260508000056 54 125 0.0 3.0 0.00 0.02 0.02 78 1008.5
20260507234524 54 111 0.0 3.0 0.00 0.02 0.02 77 1008.7
20260507233105 54 158 0.0 6.0 0.00 0.02 0.02 77 1008.5
20260507231541 55 87 1.0 9.0 0.00 0.02 0.02 75 1008.4
20260507230026 56 130 1.0 5.0 0.00 0.02 0.02 74 1008.4
20260507224554 56 120 0.0 3.0 0.00 0.02 0.02 70 1007.9
20260507223040 57 158 0.0 4.0 0.00 0.02 0.02 71 1008.2
20260507221603 57 246 1.0 5.0 0.00 0.02 0.02 71 1008.1
20260507220033 57 140 1.0 6.0 0.00 0.02 0.02 72 1008.4
20260507214510 56 124 1.0 6.0 0.00 0.02 0.02 74 1008.6
20260507213111 56 83 0.0 5.0 0.00 0.02 0.02 78 1008.5
20260507211523 56 113 1.0 6.0 0.00 0.02 0.02 80 1008.1
20260507210105 56 114 1.0 5.0 0.00 0.02 0.02 78 1008.2
20260507204533 56 214 1.0 6.0 0.00 0.02 0.02 77 1008.2
20260507203005 57 118 0.0 5.0 0.00 0.02 0.02 77 1008.1
20260507201559 56 160 1.0 4.0 0.01 0.02 0.02 75 1007.9
20260507200029 57 162 2.0 6.0 0.01 0.02 0.02 75 1008.4
20260507194602 57 143 0.0 4.0 0.01 0.02 0.02 79 1008.2
20260507193042 56 168 0.0 3.0 0.01 0.02 0.02 76 1008.4
20260507191503 56 134 1.0 5.0 0.00 0.01 0.01 74 1008.4
20260507190050 57 307 0.0 3.0 0.00 0.01 0.01 73 1009.0
20260507184515 57 214 0.0 3.0 0.00 0.01 0.01 74 1009.0
20260507183057 58 216 1.0 4.0 0.00 0.01 0.01 71 1008.9
20260507181532 58 82 1.0 5.0 0.00 0.01 0.01 68 1008.8
20260507180108 59 199 2.0 6.0 0.00 0.01 0.01 66 1009.3
20260507174551 60 203 1.0 5.0 0.00 0.01 0.01 67 1009.3
20260507173015 60 79 0.0 5.0 0.00 0.01 0.01 67 1009.7
20260507171601 60 155 0.0 4.0 0.00 0.01 0.01 65 1009.7
20260507170022 60 82 0.0 3.0 0.00 0.01 0.01 67 1009.7
20260507164606 59 281 0.0 2.0 0.00 0.01 0.01 68 1010.1
20260507163042 58 217 0.0 1.0 0.00 0.01 0.01 67 1010.4
20260507161513 57 24 0.0 3.0 0.00 0.01 0.01 66 1010.5
20260507160053 58 248 0.0 2.0 0.00 0.01 0.01 65 1010.5
20260507154520 58 108 1.0 4.0 0.00 0.01 0.01 64 1010.7
20260507153115 57 56 1.0 5.0 0.00 0.01 0.01 65 1011.0
20260507151531 58 244 0.0 3.0 0.00 0.01 0.01 64 1011.2
20260507150002 57 191 0.0 5.0 0.00 0.01 0.01 66 1011.0
20260507144544 57 68 2.0 7.0 0.00 0.01 0.01 66 1011.0
20260507143018 57 226 2.0 7.0 0.00 0.01 0.01 66 1011.0
20260507141557 57 75 2.0 11.0 0.00 0.01 0.01 68 1011.1